Location: Stuttgart
(48.8069°N, 9.1544°E)
Time: 09:52:20
(UTC+01:00)

ISS - Pass Details

Date: 11 November 2017
Orbit: 402 x 407 km, 51.6° (Epoch: 22 November)

Event Time Altitude Azimuth Distance (km) Brightness Sun altitude
Exits shadow 05:09:51 41° 48° (NE) 597 -2.7 -22.5°
Drops below altitude 10° 05:12:21 10° 83° (E) 1,457 0.1 -22.0°
Sets 05:14:28 0° 88° (E) 2,316 1.6 -21.7°
